sat.trackr.live / text

‹ back to catalog

IRS-P5 (CARTOSAT-1)

NORAD 28649 · 2005-017A

PAYLOAD ACTIVE UNKNOWN

§ Identity

Operator
Country
IND
Launch date
2005-05-05
Launch site
SRILR
Launch vehicle
Mass (kg)
RCS (m²)
4.69

Purposes: earth_obs

External: N2YO · Heavens-Above · Gunter

§ Orbital elements

Epoch: 2026-09-12T01:05:05.807040Z

Period
96.56 min
Inclination
97.5294°
Eccentricity
0.0002516
Mean motion
14.91234082 rev/d
Perigee alt
592.3 km
Apogee alt
595.8 km
Semi-major
6,972.2 km
B*
8.1331e-5
RAAN
274.1725°
Arg perigee
106.3701°
Mean anomaly
253.7795°
Rev number
15,676

§ Raw data

IRS-P5 (CARTOSAT-1)1 28649U 05017A   26255.04520610  .00000756  00000+0  81331-4 0  99972 28649  97.5294 274.1725 0002516 106.3701 253.7795 14.91234082156764

JSON: /api/v1/satellites/28649 · /tle

For live sub-satellite position, see the globe view (requires WebGL).

§ Visibility from observer

Set your observer location to see the next 7 days of passes ≥ 10°. The values pass through the URL so the page stays shareable.

No JS? Fill the form by hand. The geolocation button needs JavaScript.